Location: Bondula
(6.3703°N, 10.6756°W)
Time: 14:55:43
(UTC+00:00)

Milstar 3 Cent rocket - Pass Details

Date: 22 October 2019
Orbit: 706 x 5147 km, 28.3° (Epoch: 20 November)

Event Time Altitude Azimuth Distance (km) Brightness Sun altitude
Exits shadow 05:20:42 11° 329° (NNW) 2,663 4.4 -17.5°
Maximum altitude 05:21:22 11° 336° (NNW) 2,581 4.4 -17.3°
Drops below altitude 10° 05:23:00 10° 353° (N) 2,500 4.5 -16.9°
Sets 05:27:17 0° 32° (NNE) 3,134 5.5 -15.9°
